Theta_e
300 300 300 300 300 300 300 300 300 300 300 301 301 302 302 302 302 305 306 305 303 303 305 308 309 320 321 326 325 324 327 328 326 323 322 322 324 325 328 331 331 332 333 332 335
299 299 299 299 300 300 300 300 300 302 302 302 303 303 303 303 303 311 309 308 307 306 308 310 310 315 322 323 326 326 329 329 327 326 322 321 322 325 327 330 331 331 330 329 331
299 299 299 299 299 299 299 300 302 303 303 303 303 304 304 304 307 313 310 305 304 303 310 309 311 311 321 323 324 327 328 328 328 326 322 323 324 323 325 330 331 331 331 330 329
299 299 299 299 299 299 299 301 303 302 302 302 303 304 304 304 309 309 307 307 305 303 309 313 313 312 315 321 322 326 327 327 327 326 323 323 324 325 324 324 327 329 329 330 330
300 300 300 300 299 300 300 301 302 302 302 302 303 304 306 309 306 304 307 308 309 308 307 308 313 313 316 317 318 323 325 326 326 325 324 323 324 325 325 326 327 327 328 329 329
300 300 300 300 300 300 301 302 302 302 302 302 304 305 308 308 307 307 307 308 309 309 308 308 311 313 313 314 318 319 320 322 324 325 326 326 328 327 328 328 329 329 329 329 329
300 300 300 300 300 300 301 302 303 302 302 304 305 305 309 308 307 308 309 309 309 309 309 308 308 309 315 315 314 316 319 320 322 323 325 327 329 329 327 328 329 329 329 328 328
300 300 300 300 300 301 301 302 302 303 304 305 305 308 310 307 307 309 309 309 309 309 309 309 308 307 310 314 315 315 317 319 321 321 321 325 330 330 327 327 328 327 327 326 327
300 300 300 300 301 301 301 302 303 304 304 306 310 310 309 307 308 308 308 309 309 309 309 308 308 308 309 313 315 317 317 318 319 321 321 322 325 326 325 325 326 326 326 326 326
301 301 300 300 301 301 302 303 303 304 305 306 307 311 308 307 307 307 309 309 309 309 309 309 308 310 309 312 314 315 317 317 318 320 321 322 322 323 323 324 325 325 326 327 326
301 301 301 300 302 302 303 307 309 309 307 309 308 308 307 307 307 308 308 309 309 309 311 311 310 310 310 310 312 314 316 317 318 319 320 322 322 322 322 322 323 324 324 324 324
301 302 302 301 304 303 305 308 307 307 309 308 307 307 308 307 307 307 308 309 310 311 311 311 312 311 310 309 310 313 315 317 317 318 320 320 321 322 322 323 322 323 323 322 322
301 302 304 301 305 306 307 308 308 308 310 308 307 307 307 307 307 307 307 309 311 310 310 312 312 311 309 309 310 312 313 315 316 317 318 320 321 321 322 322 321 321 321 321 321
300 302 305 302 307 306 308 307 308 308 311 308 308 308 307 307 308 306 308 308 310 310 310 311 311 311 310 309 310 310 311 313 315 316 318 319 320 321 321 322 322 321 321 321 321
299 304 305 302 306 309 308 308 308 307 310 307 308 306 307 308 307 307 308 308 310 311 311 311 311 310 310 309 310 310 311 313 314 316 317 317 319 320 321 321 321 322 321 320 320
299 306 302 307 307 308 307 306 307 311 310 307 307 308 309 307 307 306 307 307 309 312 312 313 311 311 310 309 309 310 310 310 313 314 317 317 318 319 320 320 321 321 320 319 319
301 306 308 307 310 307 307 308 311 309 307 308 308 309 309 308 308 307 308 308 310 312 311 312 312 312 311 310 310 309 310 311 312 315 316 316 317 317 320 319 319 319 320 319 320
303 308 308 308 307 307 308 309 310 308 308 308 309 309 309 308 309 309 308 308 309 311 312 313 312 312 311 311 310 310 310 310 311 312 313 315 316 317 318 318 318 319 320 321 323
304 309 309 308 307 307 309 311 310 309 308 309 309 309 309 309 309 309 308 308 309 310 311 311 311 310 311 311 310 310 310 312 310 311 313 314 315 316 318 318 319 321 322 324 330
303 310 310 308 307 308 310 309 309 307 308 309 310 309 310 310 310 309 308 308 308 309 310 310 312 310 311 311 311 312 311 315 310 311 313 314 315 317 318 317 319 321 321 326 336
307 310 309 307 306 308 311 309 308 308 307 309 310 310 310 309 309 309 309 309 309 309 309 310 310 310 311 312 310 313 315 315 312 311 313 314 316 317 320 320 320 320 320 331 336
307 310 308 306 308 308 308 306 306 308 308 309 309 310 310 310 309 309 309 309 308 309 309 310 311 311 310 310 311 311 313 314 317 315 313 315 319 320 320 319 319 319 320 331 335
306 306 306 302 309 307 305 306 306 308 308 309 309 310 309 310 310 310 309 309 308 309 309 311 311 311 309 312 312 310 311 311 314 314 317 314 317 319 318 318 317 318 318 323 336
305 308 307 305 305 305 306 306 308 307 308 308 309 308 310 310 310 310 310 308 308 308 308 309 312 311 311 310 310 310 310 311 312 315 314 315 316 318 318 318 317 317 317 322 337
303 306 305 310 309 307 307 306 307 308 308 308 309 309 309 309 310 310 309 309 308 308 309 310 313 311 310 310 310 310 309 310 312 312 313 314 315 315 316 317 317 315 315 318 335
305 304 305 305 306 307 307 307 306 306 306 307 308 308 307 309 309 310 309 310 310 310 309 309 314 312 311 311 310 310 310 310 310 311 311 312 313 314 314 313 313 314 315 318 320
304 303 301 304 306 306 308 307 307 307 306 307 307 307 309 309 308 308 308 309 310 309 310 310 311 312 313 311 310 311 310 310 310 311 312 313 313 313 313 314 314 314 315 317 319
Wind_Speed
13 12 12 12 12 12 12 12 12 12 13 14 13 14 14 15 14 12 8 10 8 11 16 16 12 9 12 20 20 16 12 16 22 19 15 8 15 13 11 8 10 5 3 8 5
13 13 12 13 13 12 11 11 11 12 14 14 15 16 16 17 15 3 3 6 4 7 5 9 15 14 19 21 17 18 16 26 20 14 11 18 16 12 10 19 16 10 5 4 4
13 13 13 13 13 12 11 11 11 14 16 17 17 17 19 16 2 2 4 11 13 11 7 6 10 18 23 21 29 26 26 22 25 21 19 20 20 16 14 17 21 17 14 4 5
13 12 12 13 12 12 12 11 12 14 16 17 18 20 22 7 1 2 12 17 19 13 6 4 8 20 21 26 26 25 30 33 29 20 20 21 26 27 26 24 22 14 15 17 16
12 12 12 12 12 12 12 11 13 15 17 17 18 20 14 3 4 10 8 13 10 7 7 7 11 15 24 20 29 28 30 29 29 28 22 23 28 27 31 29 27 28 24 26 25
13 12 12 12 12 10 10 9 12 16 15 17 15 16 7 4 10 10 10 13 8 7 6 9 10 12 18 25 24 22 32 36 34 24 28 25 31 26 38 31 31 26 29 29 28
14 13 12 12 13 11 10 10 13 16 17 11 12 10 1 6 13 13 13 11 9 6 8 9 12 13 6 15 25 30 26 24 25 35 28 23 30 36 38 33 30 32 33 32 32
15 13 12 12 13 11 10 11 14 16 9 11 7 5 2 11 16 15 12 13 10 8 8 9 8 17 20 19 17 16 22 24 33 24 29 26 29 37 37 37 35 37 39 38 37
18 16 15 15 14 13 11 14 15 10 6 7 7 3 2 11 15 11 13 13 13 12 9 7 8 17 17 17 16 20 24 31 30 28 24 22 37 37 41 31 36 32 37 36 35
21 20 18 16 14 13 13 16 11 5 11 5 5 2 3 12 17 15 11 14 11 8 9 8 10 12 14 16 23 27 26 27 28 23 27 30 35 30 29 22 35 36 31 30 26
22 22 19 16 13 11 13 10 6 3 7 6 4 6 10 15 12 10 10 10 6 8 12 9 11 14 18 22 28 24 28 24 21 22 24 28 33 31 31 36 34 32 32 34 36
23 22 19 13 10 8 11 5 4 5 9 11 11 12 11 8 14 10 8 7 12 11 9 10 16 15 16 19 23 25 27 28 19 16 21 25 30 28 27 25 35 35 36 37 38
25 24 18 9 4 7 3 4 5 9 7 4 4 8 6 12 11 9 8 12 11 13 11 16 17 13 12 16 20 23 26 25 25 15 21 20 24 25 21 26 30 34 35 38 38
25 23 15 3 2 5 2 7 10 5 5 6 3 2 7 13 9 15 5 9 9 11 12 14 13 16 16 19 18 24 23 22 25 23 20 20 19 23 24 28 30 36 37 40 39
25 19 13 3 1 3 5 9 8 2 5 3 2 3 10 6 10 4 8 10 14 16 13 20 19 13 17 18 19 18 21 19 20 22 24 30 17 19 19 22 23 21 32 34 36
24 13 4 3 3 4 11 7 4 6 2 2 2 8 9 7 11 6 11 12 14 13 15 19 17 16 17 13 11 15 13 19 19 15 18 23 18 19 18 24 18 18 24 27 27
22 5 2 3 3 9 11 1 5 5 2 1 7 10 15 8 11 9 13 11 6 8 10 15 13 16 22 20 15 13 16 12 17 18 18 20 17 19 9 9 1 10 11 11 15
20 3 2 2 6 9 6 6 5 4 5 8 8 17 9 10 9 13 11 12 2 10 13 8 10 8 7 23 19 22 19 16 18 16 20 25 15 15 12 17 8 8 10 12 13
16 3 3 3 6 10 9 5 3 4 5 9 15 8 8 5 11 9 11 9 5 6 8 11 7 11 12 11 18 23 14 24 24 21 16 19 24 25 10 10 5 1 8 14 15
12 3 3 5 7 6 5 4 3 4 8 8 9 6 13 16 13 8 9 4 6 6 4 9 14 10 4 12 10 22 1 7 15 16 18 15 23 12 21 23 4 7 13 19 16
7 4 2 4 6 4 3 5 8 6 9 6 10 16 14 12 12 10 6 12 5 7 13 14 9 10 13 6 15 4 7 13 14 17 9 13 15 20 14 11 6 11 18 19 13
8 3 4 9 7 2 4 8 10 7 5 8 9 11 11 13 11 15 13 8 14 13 14 16 6 12 14 6 11 9 17 4 5 16 13 10 4 11 18 10 11 15 21 21 12
12 5 6 6 3 6 8 9 8 8 5 4 8 8 14 16 8 8 12 12 12 14 6 5 7 9 11 7 10 11 15 14 21 4 17 11 5 14 9 8 15 19 23 23 12
6 3 0 3 4 6 10 5 5 4 12 7 10 14 12 13 13 10 18 13 16 16 18 11 14 15 14 17 9 8 10 13 11 10 14 16 16 13 10 11 14 20 22 22 12
3 2 3 4 5 9 9 7 9 7 4 11 7 10 11 10 18 23 20 15 18 22 19 5 11 16 18 21 18 18 17 16 17 18 18 19 21 20 17 15 16 22 22 19 11
5 5 5 18 9 9 1 5 9 6 12 14 13 14 15 18 21 26 26 21 9 7 17 6 6 14 19 19 20 21 20 19 20 20 18 23 27 22 22 24 24 23 18 17 14
5 5 3 8 7 6 5 8 14 17 11 10 12 15 20 23 26 33 36 35 21 9 7 8 5 10 15 15 14 16 20 21 22 21 21 22 25 21 20 19 20 21 20 16 14
Wind_Direction
8 10 6 2 357 353 348 346 344 341 339 343 347 349 338 330 320 313 278 243 259 266 245 245 236 239 210 220 218 226 238 242 242 233 246 256 252 220 245 247 203 183 139 111 116
6 5 3 0 357 354 356 354 353 353 351 350 348 348 342 338 334 16 152 109 31 348 322 252 230 220 212 217 215 213 228 238 241 250 238 239 245 241 231 215 219 214 179 112 143
5 3 2 -0 358 360 359 357 359 357 353 350 348 347 348 350 346 63 343 316 305 316 311 280 231 222 225 222 216 220 239 241 239 230 234 249 250 232 243 233 224 223 192 233 260
2 0 360 358 357 358 355 352 352 350 352 352 347 344 342 9 338 163 344 323 311 305 303 276 239 218 228 228 224 239 244 242 253 230 237 240 247 250 247 242 243 244 245 266 264
357 355 354 354 353 352 351 346 344 341 344 343 340 346 6 345 53 322 337 355 355 336 262 257 248 234 238 233 232 239 243 246 245 252 237 252 250 251 250 246 249 256 262 264 265
350 349 348 348 350 347 347 344 337 334 335 333 339 348 4 59 355 356 328 327 319 327 283 250 242 248 271 256 246 238 245 250 253 236 246 243 255 248 245 247 253 259 262 265 268
349 345 343 342 344 340 342 338 333 328 327 337 340 359 350 13 3 350 332 307 297 279 304 286 253 243 274 256 254 256 262 259 245 243 238 245 255 247 251 249 254 258 260 263 264
355 346 341 336 338 335 331 329 330 321 325 343 6 14 263 355 358 352 332 338 308 271 269 293 265 243 250 260 278 252 245 247 238 229 239 226 253 245 243 251 253 256 260 262 263
356 351 343 338 340 338 336 335 331 329 344 349 22 315 79 333 341 332 327 324 318 287 266 263 237 241 236 235 251 236 239 231 248 231 222 221 243 255 254 252 248 253 259 261 262
353 349 344 337 340 341 344 343 340 326 351 22 342 254 271 336 333 325 336 317 304 275 254 238 242 240 228 231 232 232 235 245 259 239 229 225 242 248 261 245 250 246 252 251 256
348 346 342 335 338 340 347 341 328 235 321 294 309 289 296 316 325 316 330 328 293 258 259 238 260 257 256 242 251 265 267 254 270 243 254 236 245 251 248 248 254 250 251 259 262
343 342 339 332 339 350 6 31 26 327 298 285 261 265 284 309 309 315 332 309 309 282 264 253 248 263 276 272 262 245 252 256 258 264 244 240 249 250 250 252 251 253 255 261 264
342 339 338 326 344 1 45 26 350 336 266 264 245 283 296 310 296 287 300 312 288 283 268 263 274 300 268 255 250 253 246 249 248 244 237 248 253 252 248 252 255 256 256 258 260
341 339 340 319 53 359 10 324 333 320 269 143 196 203 305 313 255 304 261 304 271 284 298 278 287 269 256 256 250 247 249 247 250 247 244 226 256 247 242 242 241 247 250 256 260
341 339 337 150 349 9 306 319 311 164 274 70 157 311 311 292 301 329 278 307 281 290 281 273 283 268 246 258 248 261 243 247 247 239 248 246 256 262 254 255 253 253 251 255 259
343 342 43 63 33 343 343 336 151 232 237 147 284 325 313 314 312 300 294 292 277 280 271 281 273 267 258 269 266 258 255 249 241 265 244 238 240 259 253 247 250 254 248 257 261
344 333 82 33 327 333 342 237 251 270 97 56 330 323 318 303 316 331 321 307 302 305 307 314 262 244 232 253 243 235 234 234 223 225 238 234 233 242 330 109 32 268 233 275 275
346 265 207 350 335 337 327 246 266 17 312 336 316 309 297 338 333 328 310 310 235 280 302 316 309 346 302 230 236 237 231 236 232 228 230 224 234 225 233 260 279 253 269 278 287
351 209 195 283 323 337 289 260 299 339 344 319 313 293 310 288 313 317 317 315 313 349 320 314 302 302 287 275 231 247 226 260 260 281 241 219 213 256 250 247 211 319 335 325 310
1 208 231 289 312 322 273 281 283 286 306 303 302 298 313 325 311 323 311 319 304 300 322 311 302 315 338 271 226 247 313 291 239 255 234 223 210 222 209 228 190 18 350 347 336
4 258 279 352 335 273 275 326 309 309 293 285 297 295 300 316 299 299 282 297 304 310 307 290 272 286 258 232 250 259 229 236 253 238 255 225 208 200 123 102 62 15 4 2 351
356 267 304 338 255 253 283 339 325 298 279 262 280 282 295 301 289 289 286 264 300 304 297 292 287 280 279 253 202 200 241 271 268 226 248 302 79 100 123 97 30 10 8 14 7
334 295 324 357 340 326 321 295 271 289 295 286 292 285 302 287 296 289 287 288 288 289 291 330 248 279 261 166 205 232 214 205 239 278 278 234 173 164 151 72 24 0 359 0 23
332 308 324 26 352 320 333 305 307 269 280 272 268 299 293 292 275 276 281 282 277 272 284 285 260 259 277 299 310 290 273 274 269 277 253 244 252 174 230 334 349 342 342 354 32
342 30 346 302 333 321 298 283 303 318 287 295 283 260 298 295 298 288 282 292 288 276 279 257 248 258 266 276 277 276 271 261 252 260 263 264 263 256 268 310 322 314 319 336 29
2 345 323 295 304 301 356 293 298 319 310 284 285 298 303 285 282 290 291 291 265 263 217 208 266 263 267 260 257 265 266 260 254 251 253 260 261 267 285 292 289 291 304 320 357
337 327 285 305 308 313 309 327 313 314 309 273 288 303 293 289 294 289 288 281 269 243 212 188 224 252 254 244 257 265 261 254 252 247 241 247 256 266 266 270 279 290 296 303 316